Вернуться в каталог

STARLINK-37812

АктивенСвязьVLEO
NORAD 100293·PAYLOAD·🇺🇸 United States

Запущен Aug 11, 2026 с Cape Canaveral Space Force Station

Loading…

Ближайшие Пролёты (ближайшие 24 часа)

TLE

УстаревшееSource: Space-Track

Эпоха: Sep 8, 2026, 21:29 UTC

1 A0293U 26183X   26251.89539494  .00312711  00000-0  19848-2 0  9998
2 A0293  53.1587 314.3924 0003899 358.7086   1.3923 15.75059437  4487

Отслеживайте STARLINK-37812 в реальном времени с AllMySat

Download on the App Store